[[{"header":{"parameterUnit":"m.s-1","parameterCategory":1,"la1":30.2991,"la2":30.254,"lo1":-89.0895,"lo2":-89.0444,"dy":0.0017,"dx":0.0017,"nx":28,"ny":28,"refTime":"2024-07-15T03:00:00:Z","depth":0,"parameterNumber":2,"parameterNumberName":"U-component_of_WINDS"},"data":[0,0,0,0,0,0,0,0,0,0,0,0,0,0,0,0,0,0,0,0,0,0,0,0,0,0,0,0,0,0,0,0,0,0,0,0,0,0,0,0,0,0,0,0,0,0,0,0,0,0,0,0,0,0,0,0,0,0,5.3077,5.3079,0,5.3232,5.3234,5.3236,5.3179,5.3175,5.3172,5.3169,5.3327,5.3334,5.3341,0,0,0,0,0,0,0,0,0,0,0,0,0,5.2728,5.2734,5.3077,5.3079,5.3081,5.3232,5.3234,5.3236,5.318,5.3175,5.3171,5.3167,5.3324,5.3333,5.3342,0,0,0,0,0,0,0,0,0,0,0,0,0,5.2881,5.2737,5.3076,5.3071,5.3072,5.3232,5.3234,5.3237,5.318,5.3175,5.317,5.3165,5.3321,5.3332,5.3343,5.3518,0,0,5.3378,5.3382,0,0,0,0,0,0,0,0,5.2872,5.2894,5.307,5.3071,5.3073,5.3181,5.3169,5.3331,5.3182,5.3139,5.3168,5.3162,5.3282,5.3296,5.3337,5.3525,5.3532,5.3379,5.3385,5.339,5.3393,0,0,0,0,0,0,0,5.2862,5.2887,5.3138,5.3072,5.3074,5.3059,5.3075,5.3199,5.3238,5.3142,5.3139,5.3158,5.3282,5.3327,5.334,5.3534,5.3378,5.3388,5.3395,5.34,5.3869,5.3875,0,0,0,0,0,0,5.2851,5.2878,5.3133,5.3143,5.2958,5.307,5.3088,5.3151,5.3237,5.3245,5.3162,5.3155,5.331,5.3327,5.3346,5.3552,5.339,5.3401,5.3407,5.3864,5.387,5.3877,0,0,0,0,0,0,5.2843,5.2874,5.3127,5.301,5.3041,5.3081,5.3154,5.3157,5.3201,5.3252,5.3258,5.32,5.3306,5.333,5.3475,5.3557,5.3406,5.3416,5.3857,5.3866,5.3874,5.3969,0,0,0,0,0,0,5.2834,5.2872,5.2939,5.3012,5.3047,5.3255,5.3159,5.3164,5.3221,5.3213,5.3289,5.3297,5.3304,5.3458,5.3486,5.357,5.3425,5.3849,5.3861,5.3871,5.3959,5.398,5.3998,0,0,0,0,0,5.2821,5.2961,5.2943,5.2974,5.3133,5.326,5.328,5.3285,5.3228,5.3295,5.3327,5.3295,5.3544,5.3474,5.3504,5.3593,5.3844,5.3858,5.387,5.395,5.3976,5.3998,0,0,0,0,0,0,5.2898,5.297,5.2951,5.3119,5.3183,5.325,5.3335,5.3313,5.3395,5.3384,5.3387,5.3405,5.3553,5.3588,5.3508,5.3764,5.3685,5.3705,5.3736,5.3761,5.378,5.3767,5.3434,0,0,0,0,0,5.2934,5.3032,5.309,5.3231,5.3265,5.3295,5.335,5.3349,5.3415,5.3442,5.3485,5.3551,5.3643,5.3704,5.3793,5.3964,5.3978,5.404,5.406,5.4076,5.4092,5.4181,5.4208,5.3919,5.3919,5.3919,0,0,5.301,5.3062,5.3123,5.3248,5.3298,5.3397,5.3318,5.3427,5.35,5.3459,5.3597,5.3631,5.3704,5.3862,5.3933,5.3895,5.4175,5.4092,5.4105,5.4112,5.4197,5.4225,5.4249,5.3928,5.3926,5.3925,0,0,5.3198,5.3249,5.3371,5.3422,5.3498,5.3516,5.3546,5.3615,5.3636,5.3775,5.3744,5.3831,5.3992,5.4044,5.4092,5.4297,5.4269,5.4326,5.4428,5.4515,5.4538,5.4558,5.4628,5.4653,5.4343,5.4343,5.4343,0,5.3283,5.3432,5.3436,5.3547,5.3601,5.3568,5.369,5.374,5.3841,5.3878,5.3835,5.4033,5.4081,5.4248,5.4298,5.4339,5.437,5.4317,5.4535,5.4555,5.4574,5.464,5.4667,5.4349,5.4349,5.4348,5.4347,0,5.353,5.3634,5.3723,5.3821,5.3885,5.4002,5.4021,5.4086,5.4079,5.4102,5.4241,5.4297,5.4394,5.4434,5.4429,5.4601,5.4574,5.4533,5.4453,5.4607,5.4669,5.4695,5.4358,5.4356,5.4354,5.4353,0,0,5.3771,5.3868,5.39,5.3942,5.4023,5.4103,5.4216,5.4311,5.4365,5.4436,5.4529,5.4665,5.4626,5.468,5.468,5.4757,5.4911,5.4706,5.4707,5.4739,5.5099,5.5127,5.5157,5.4894,5.4899,5.4903,5.5092,0,5.3963,5.4162,5.4168,5.435,5.4443,5.4412,5.4511,5.457,5.4594,5.4676,5.4702,5.4796,5.474,5.4772,5.4847,5.4877,5.4983,5.4864,5.4978,5.4982,5.4957,5.519,5.5221,5.5397,5.5117,5.5121,5.5124,0,5.4214,5.4291,5.4482,5.4546,5.4585,5.4674,5.4759,5.4839,5.4905,5.4916,5.4976,5.4963,5.5077,5.4995,5.515,5.5068,5.5116,5.5137,5.5144,5.5153,5.506,5.5202,5.5454,5.5479,5.5163,5.516,5.5157,0,5.4366,5.4518,5.465,5.4688,5.4767,5.4829,5.4865,5.4925,5.4981,5.5056,5.5091,5.5179,5.5226,5.5293,5.5304,5.5244,5.5458,5.5378,5.5468,5.5468,5.5513,5.5509,5.5772,5.5549,5.5549,5.5548,5.5547,0,5.4578,5.4695,5.4719,5.48,5.4929,5.4935,5.5062,5.5093,5.5146,5.5231,5.5211,5.5291,5.5302,5.5385,5.5394,5.5518,5.5541,5.5552,5.5552,5.5552,5.555,5.5581,5.5567,5.5555,5.5553,5.5552,5.5551,0,5.4768,5.479,5.4932,5.4994,5.5013,5.5105,5.5157,5.5234,5.5255,5.5363,5.5389,5.5422,5.5517,5.5535,5.5649,5.5655,5.5802,5.5792,5.578,5.5778,5.5865,5.5855,5.6155,5.6193,5.5948,5.595,5.5952,0,5.4901,5.499,5.5061,5.5117,5.5155,5.5246,5.5302,5.531,5.5368,5.5448,5.5515,5.5608,5.5683,5.5837,5.587,5.5956,5.5946,5.6045,5.5958,5.5954,5.5942,5.5936,5.5943,5.606,5.6063,5.6065,5.6067,0,5.5133,5.5138,5.522,5.5305,5.5372,5.544,5.5504,5.555,5.5566,5.5633,5.573,5.5788,5.5903,5.5995,5.608,5.6115,5.6093,5.6094,5.6118,5.6117,5.6105,5.6109,5.5821,5.6086,5.6084,5.6083,5.6082,5.6081,5.5296,5.5372,5.5433,5.5524,5.5573,5.5632,5.5706,5.5736,5.5817,5.5911,5.5911,5.6016,5.6076,5.6188,5.6228,5.631,5.6278,5.6315,5.6324,5.6332,5.6338,5.6095,5.6326,5.6325,5.6325,5.6324,5.6324,0,5.5523,5.5561,5.5644,5.5733,5.5804,5.5778,5.5846,5.5907,5.6,5.6058,5.6132,5.6242,5.633,5.637,5.6456,5.6513,5.6505,5.6535,5.6529,5.6537,5.6363,5.6332,5.654,5.654,5.654,5.654,5.654,5.654,5.5649,5.5775,5.5788,5.5937,5.5973,5.6076,5.6117,5.6171,5.6217,5.634,5.6413,5.6439,5.6488,5.6578,5.6657,5.6666,5.6697,5.6731,5.6736,5.6572,5.655,5.6529,5.6499,5.6739,5.6739,5.6902,5.6903,5.6905]},{"header":{"parameterUnit":"m.s-1","parameterCategory":1,"la1":30.2991,"la2":30.254,"lo1":-89.0895,"lo2":-89.0444,"dy":0.0017,"dx":0.0017,"nx":28,"ny":28,"refTime":"2024-07-15T03:00:00:Z","depth":0,"parameterNumber":3,"parameterNumberName":"V-component_of_WINDS"},"data":[0,0,0,0,0,0,0,0,0,0,0,0,0,0,0,0,0,0,0,0,0,0,0,0,0,0,0,0,0,0,0,0,0,0,0,0,0,0,0,0,0,0,0,0,0,0,0,0,0,0,0,0,0,0,0,0,0,0,2.4544,2.4545,0,2.4612,2.4613,2.4614,2.46,2.4599,2.4598,2.4596,2.4665,2.4668,2.467,0,0,0,0,0,0,0,0,0,0,0,0,0,2.4398,2.4401,2.4544,2.4545,2.4546,2.4612,2.4613,2.4614,2.46,2.4599,2.4597,2.4596,2.4664,2.4667,2.4671,0,0,0,0,0,0,0,0,0,0,0,0,0,2.4464,2.4402,2.4544,2.4547,2.4548,2.4612,2.4613,2.4614,2.4601,2.4599,2.4597,2.4595,2.4663,2.4667,2.4671,2.4736,0,0,2.4685,2.4687,0,0,0,0,0,0,0,0,2.446,2.4469,2.4545,2.4547,2.4548,2.4596,2.4587,2.4655,2.4601,2.458,2.4596,2.4594,2.4643,2.4649,2.4666,2.4739,2.4742,2.4685,2.4688,2.469,2.4691,0,0,0,0,0,0,0,2.4455,2.4466,2.4571,2.4547,2.4548,2.4544,2.4551,2.46,2.4621,2.4582,2.4581,2.459,2.4643,2.4662,2.4667,2.4743,2.4685,2.4689,2.4692,2.4694,2.487,2.4872,0,0,0,0,0,0,2.445,2.4462,2.4569,2.4573,2.4498,2.4548,2.4556,2.4582,2.4621,2.4625,2.4591,2.4589,2.4655,2.4662,2.467,2.4746,2.469,2.4694,2.4697,2.4868,2.4871,2.4873,0,0,0,0,0,0,2.4447,2.446,2.4566,2.4517,2.4531,2.4552,2.4582,2.4584,2.4603,2.4628,2.4631,2.4606,2.4654,2.4663,2.4719,2.4749,2.4696,2.47,2.4866,2.4869,2.4872,2.4901,0,0,0,0,0,0,2.4443,2.4459,2.4485,2.4518,2.4533,2.4615,2.4584,2.4587,2.4611,2.4608,2.4642,2.4646,2.4653,2.4713,2.4724,2.4754,2.4704,2.4863,2.4867,2.4871,2.4898,2.4905,2.4911,0,0,0,0,0,2.4438,2.449,2.4486,2.4499,2.4566,2.4617,2.4626,2.4633,2.4613,2.4638,2.4654,2.4645,2.4744,2.4718,2.4731,2.4763,2.4861,2.4866,2.487,2.4895,2.4904,2.4911,0,0,0,0,0,0,2.446,2.4495,2.449,2.4556,2.4583,2.4615,2.4647,2.4642,2.4676,2.4672,2.4679,2.4686,2.4743,2.4758,2.4729,2.4826,2.48,2.4807,2.4814,2.4823,2.4829,2.4824,2.4707,0,0,0,0,0,2.4472,2.4512,2.454,2.4595,2.4609,2.4625,2.4648,2.4651,2.468,2.4691,2.4711,2.4739,2.4776,2.48,2.4836,2.49,2.4906,2.4928,2.4934,2.494,2.4946,2.4979,2.4988,2.4888,2.4888,2.4887,0,0,2.4499,2.4522,2.4547,2.46,2.4621,2.4661,2.4636,2.4679,2.4708,2.4698,2.4751,2.4767,2.4798,2.4858,2.4885,2.4872,2.4975,2.4946,2.495,2.4953,2.4985,2.4994,2.5002,2.4891,2.489,2.489,0,0,2.4566,2.4589,2.4636,2.4658,2.4691,2.4702,2.4713,2.4745,2.4754,2.4808,2.4801,2.4835,2.4899,2.4921,2.494,2.5014,2.5006,2.5025,2.506,2.5092,2.51,2.5107,2.5132,2.5141,2.5031,2.5031,2.5031,0,2.4594,2.4654,2.4661,2.4704,2.4727,2.4719,2.4766,2.4787,2.483,2.4845,2.483,2.4909,2.493,2.4994,2.5011,2.5028,2.5039,2.5021,2.5098,2.5105,2.5112,2.5136,2.5145,2.5033,2.5033,2.5033,2.5032,0,2.4686,2.4728,2.4762,2.4803,2.4829,2.4874,2.4886,2.4912,2.4912,2.4923,2.4977,2.5001,2.504,2.5056,2.5056,2.5119,2.511,2.5097,2.507,2.5124,2.5146,2.5155,2.5036,2.5035,2.5035,2.5034,0,0,2.4771,2.4814,2.4827,2.4844,2.488,2.4911,2.4955,2.4993,2.5014,2.5044,2.5079,2.5132,2.512,2.5142,2.5145,2.5173,2.5227,2.5156,2.5157,2.5167,2.5296,2.5305,2.5315,2.5222,2.5224,2.5226,2.5293,0,2.4841,2.4919,2.4925,2.4994,2.5031,2.5024,2.5061,2.5086,2.5098,2.513,2.5142,2.5179,2.516,2.5173,2.5201,2.5215,2.5253,2.521,2.5254,2.5256,2.5246,2.5327,2.5338,2.54,2.5301,2.5303,2.5304,0,2.4934,2.4965,2.5038,2.5066,2.5082,2.5116,2.5151,2.5182,2.5209,2.5215,2.5239,2.5237,2.528,2.5252,2.531,2.5281,2.5299,2.5308,2.5311,2.5315,2.5283,2.5332,2.542,2.5429,2.5318,2.5317,2.5316,0,2.4986,2.5047,2.5098,2.5114,2.5148,2.5172,2.5187,2.5213,2.5235,2.5264,2.5278,2.5313,2.5332,2.5357,2.5364,2.5343,2.5422,2.5395,2.5427,2.5427,2.5444,2.5442,2.5534,2.5457,2.5457,2.5456,2.5456,0,2.5063,2.5108,2.5122,2.5154,2.5203,2.5208,2.5256,2.527,2.5292,2.5325,2.532,2.5351,2.5359,2.539,2.5396,2.5442,2.5451,2.5456,2.5457,2.5456,2.5455,2.5468,2.5463,2.5459,2.5458,2.5458,2.5457,0,2.5131,2.5142,2.5197,2.5225,2.5232,2.5267,2.529,2.5319,2.5329,2.5371,2.5381,2.5396,2.5433,2.5442,2.5486,2.549,2.5544,2.5541,2.5535,2.5535,2.5566,2.5562,2.5669,2.5682,2.5596,2.5597,2.5598,0,2.5179,2.5213,2.5244,2.5265,2.5282,2.5317,2.5339,2.5345,2.5368,2.54,2.5425,2.5462,2.5491,2.5549,2.5564,2.5597,2.5594,2.5629,2.5599,2.5596,2.5593,2.5591,2.5593,2.5635,2.5635,2.5636,2.5637,0,2.5263,2.5266,2.5299,2.5333,2.5359,2.5386,2.5412,2.543,2.5439,2.5465,2.5503,2.5525,2.5569,2.5605,2.5637,2.5652,2.5645,2.5646,2.5655,2.5654,2.5649,2.5651,2.555,2.5644,2.5643,2.5642,2.5642,2.5642,2.5321,2.535,2.5376,2.5412,2.5432,2.5455,2.5484,2.5497,2.5528,2.5565,2.5566,2.5607,2.563,2.5674,2.569,2.572,2.571,2.5723,2.5726,2.5729,2.5731,2.5644,2.5727,2.5726,2.5726,2.5726,2.5726,0,2.5403,2.5419,2.5452,2.5488,2.5515,2.5507,2.5535,2.5558,2.5594,2.5617,2.5645,2.5687,2.5721,2.5737,2.577,2.5791,2.5789,2.58,2.5798,2.5801,2.574,2.5728,2.5801,2.5801,2.5801,2.5801,2.5801,2.5801,2.545,2.5498,2.5504,2.5561,2.5576,2.5616,2.5632,2.5653,2.5672,2.5719,2.5747,2.5757,2.5777,2.5811,2.5841,2.5845,2.5856,2.5868,2.587,2.5813,2.5805,2.5798,2.5787,2.5871,2.5871,2.5929,2.5929,2.593]}]]